{"data":{"norad_id":58161,"intl_designator":"2023-166M","name":"STARLINK-30773","alt_names":[],"object_type":"PAYLOAD","status":"ACTIVE","operator":null,"country":"US","launch_date":"2023-10-29","launch_site_code":"AFWTR","launch_vehicle":null,"mission":null,"orbit_class":"UNKNOWN","rcs_meters":null,"size_class":null,"mass_kg":null,"dimensions":null,"purposes":["comms"],"wikipedia_slug":null,"has_3d_model":false,"image_url":null,"decayed_at":null,"tle_current":{"epoch":"2026-05-25T04:46:35.061024Z","epoch_age_seconds":53816,"freshness":"FRESH","line1":"1 58161U 23166M   26145.19901691  .00005516  00000+0  19820-3 0  9992","line2":"2 58161  53.1609 224.1839 0001057 113.7056 246.4056 15.30205785144891","mean_motion":15.30205785,"eccentricity":0.0001057,"inclination_deg":53.1609,"raan_deg":224.1839,"arg_perigee_deg":113.7056,"mean_anomaly_deg":246.4056,"bstar":0.0001982,"rev_number":14489,"period_min":94.104989937677,"perigee_km":474.47339901851,"apogee_km":475.92219399449,"semimajor_km":6853.3347965065,"source":"CELESTRAK","updated_at":"2026-05-25T13:38:18.538862Z"}}}